Wind_Speed
1 1 1 1 1 1 1 2 2 2 2 0 0 1 2 3 3 4 6 6 6 6 7 7 8 8 8 9 9 10 10 11 12 12 12 13 13 13 13 13 14 14 14 15 15 16 16 16 17
2 2 2 1 1 1 1 2 2 1 0 1 2 3 4 5 5 6 7 8 8 8 9 9 9 9 9 9 10 10 11 11 11 11 12 12 12 12 13 13 14 14 15 15 16 16 17 17 17
2 2 2 1 1 1 0 1 1 0 1 2 3 5 6 7 7 7 9 10 10 10 10 10 10 10 10 10 10 10 10 10 11 11 11 12 12 13 13 13 14 14 15 15 16 16 17 17 18
2 1 1 1 2 2 2 2 1 2 3 4 5 6 9 9 9 9 10 11 11 11 10 10 10 10 10 10 10 10 10 11 11 11 12 12 12 13 13 13 14 14 15 15 16 17 17 18 18
1 1 2 3 4 5 4 4 4 4 5 6 7 7 10 11 10 9 10 11 12 12 11 11 10 10 10 10 10 11 11 11 11 12 12 12 12 13 13 13 14 14 15 16 16 17 18 18 19
1 2 3 4 5 6 5 5 6 6 7 8 8 9 11 13 12 10 10 11 12 13 12 11 11 11 11 11 11 11 11 12 12 12 12 12 12 13 13 14 14 15 16 17 17 18 18 19 19
3 4 4 5 6 7 7 8 8 9 9 10 10 10 12 13 12 11 11 12 13 13 13 12 12 12 12 12 12 12 12 12 12 12 12 13 13 13 14 14 15 15 16 16 17 18 18 19 20
5 6 6 6 7 8 9 10 11 11 11 11 11 11 12 13 13 13 12 12 13 14 14 13 13 13 13 13 13 13 13 13 13 13 13 14 14 14 15 15 15 16 16 17 18 18 19 20 21
7 8 9 9 9 10 11 12 13 13 13 13 12 12 12 13 14 14 14 13 14 15 15 15 15 15 14 14 14 14 14 14 14 15 15 15 16 16 16 17 17 17 18 19 19 20 21 21 22
9 10 11 12 12 12 13 14 14 14 15 14 13 13 13 15 15 15 15 14 15 15 16 16 16 16 16 16 17 17 17 17 17 17 18 18 18 19 19 19 20 20 21 21 22 23 23 24 25
12 13 13 14 14 14 14 15 16 16 16 15 15 15 15 16 17 17 16 16 16 17 18 19 19 19 19 19 19 19 20 20 20 20 21 21 21 22 22 23 23 24 24 25 26 26 27 28 28
14 15 15 16 16 16 16 17 18 18 17 16 16 16 16 17 18 18 18 18 18 19 20 21 21 21 22 22 22 23 23 23 23 24 24 25 25 26 26 27 27 28 28 29 29 30 31 31 32
16 17 17 17 17 17 17 19 19 19 17 17 17 17 17 17 18 19 19 20 21 21 22 22 22 23 24 24 25 26 26 27 27 27 28 28 29 29 30 30 31 31 32 33 33 34 35 35 36
16 17 18 18 18 17 18 20 20 18 18 18 18 18 18 18 19 20 21 22 22 23 23 24 24 25 26 27 28 29 29 30 30 31 31 32 32 33 33 34 35 35 36 36 37 38 38 39 40
16 16 18 19 18 18 18 21 21 19 18 18 19 19 18 19 20 20 21 22 23 24 24 25 26 27 27 29 30 31 32 32 33 34 35 35 36 36 37 37 38 39 40 40 41 42 42 43 44
16 16 17 19 18 17 18 19 22 20 19 18 19 19 19 19 20 21 22 23 23 24 25 25 26 27 28 30 31 32 34 35 36 37 37 38 39 40 40 41 42 43 43 44 45 46 46 47 48
15 16 17 18 18 17 17 17 20 20 19 19 18 18 18 19 19 20 22 23 24 24 25 26 27 28 30 31 32 34 35 36 38 39 40 41 42 43 44 44 45 46 47 47 49 50 50 51 52
14 15 17 18 18 18 18 18 18 18 18 19 18 18 18 18 19 20 21 22 23 24 24 26 27 29 31 32 33 35 36 37 38 40 41 42 44 45 47 47 48 50 50 51 52 53 54 54 56
14 14 15 17 17 17 18 18 17 17 17 18 18 19 18 18 18 19 20 22 23 24 25 26 27 29 31 33 34 36 37 38 39 40 42 44 46 48 49 50 51 52 53 54 55 56 57 58 60
14 14 14 16 18 18 18 18 16 16 16 17 18 19 19 19 19 20 21 22 24 25 26 28 29 30 32 34 36 36 38 38 40 42 44 46 48 50 51 52 53 55 56 57 58 59 60 61 63
14 14 14 14 16 18 18 17 16 15 15 16 17 18 19 20 21 22 23 24 25 26 27 29 30 32 33 35 36 38 39 40 42 44 46 47 49 51 53 54 56 57 58 59 60 62 63 64 64
14 15 15 14 15 16 18 18 17 16 16 17 17 19 20 21 23 24 24 25 26 27 28 30 31 32 34 35 37 38 40 41 43 46 47 49 51 52 54 55 57 59 60 61 63 64 65 66 66
15 16 15 15 15 16 17 18 19 18 18 18 19 20 21 22 23 25 26 27 27 28 29 31 32 33 34 36 38 39 41 42 44 46 48 50 51 53 55 56 58 60 61 62 64 65 66 67 67
16 17 17 16 16 16 17 18 20 20 20 20 20 21 22 24 25 26 27 28 29 30 31 32 33 34 36 37 39 40 42 44 45 47 49 51 53 54 56 58 59 61 62 63 65 66 67 68 68
17 18 19 18 17 17 18 19 20 22 22 22 23 23 24 25 26 27 27 28 30 31 32 33 35 36 38 40 41 43 44 46 48 49 51 53 54 56 58 60 61 62 64 65 66 67 67 68 69
18 19 20 21 20 18 19 19 21 23 24 24 24 24 24 25 26 27 29 31 32 33 35 37 38 40 41 43 45 47 48 50 51 53 55 56 57 59 60 62 63 64 65 66 67 67 68 69 69
20 20 22 23 23 21 19 19 21 24 25 25 25 25 26 27 29 30 32 34 35 37 39 40 42 43 45 47 48 50 52 54 56 57 59 60 61 62 63 64 65 65 66 67 68 68 69 69 70
21 22 23 24 26 26 22 20 23 25 25 27 28 29 29 30 32 34 35 37 39 41 43 45 47 48 50 52 53 55 57 59 60 62 63 64 65 65 66 66 67 67 68 69 70 70 69 70 69
22 23 25 26 27 28 27 22 24 25 27 29 31 32 33 35 36 38 40 42 44 46 48 50 51 53 55 57 59 60 62 63 65 66 67 67 68 68 68 68 69 69 69 69 69 69 69 69 69
23 24 26 27 27 28 28 24 25 28 30 32 34 35 37 40 41 43 45 47 49 51 53 55 57 59 61 63 65 66 67 69 69 70 70 70 70 70 70 70 70 70 69 69 69 68 68 69 68
Wind_Direction
87 115 141 163 201 145 119 132 153 150 143 128 359 312 294 280 275 274 272 268 262 256 253 253 254 257 259 262 265 268 269 271 272 274 275 276 276 276 276 276 275 276 276 276 276 276 276 275 274
99 109 116 114 97 81 115 171 179 158 170 313 315 305 292 288 287 282 277 273 269 264 260 259 260 262 263 266 268 270 271 272 273 275 276 276 276 276 277 277 277 278 278 278 278 278 278 278 277
91 95 94 75 49 37 251 215 187 172 306 306 305 301 293 288 288 285 279 276 272 268 264 262 262 263 265 268 269 269 269 271 273 275 275 276 277 278 278 279 280 281 281 281 281 282 282 282 281
90 72 51 13 352 330 308 293 310 323 315 308 304 300 293 290 289 285 280 277 273 269 265 262 263 265 266 267 267 268 269 271 274 275 276 277 278 279 279 281 282 284 284 285 285 285 285 285 285
53 15 353 343 332 325 319 311 317 317 311 305 300 296 290 289 288 284 279 275 272 269 265 263 264 265 266 267 267 268 270 271 272 273 275 276 278 279 280 282 284 285 286 287 288 288 288 288 288
316 333 331 328 323 321 324 320 318 313 307 300 297 291 286 285 286 283 276 272 270 267 265 263 262 264 265 266 267 267 268 269 270 271 273 276 277 278 280 282 284 285 287 288 289 290 291 291 291
278 302 316 318 315 316 320 319 314 309 304 299 295 289 283 284 284 280 272 268 268 267 265 262 262 263 264 264 265 266 266 267 268 270 272 274 276 278 280 282 284 285 287 289 290 291 292 293 293
279 291 301 307 309 311 314 314 310 306 303 299 295 289 284 285 283 279 273 268 267 266 265 263 261 261 262 263 264 265 265 265 267 268 270 272 274 276 278 280 282 285 287 289 291 292 293 294 295
277 285 292 299 302 304 306 306 304 303 301 298 296 293 289 285 281 279 275 270 267 265 265 264 261 260 261 262 264 265 265 266 267 268 269 270 272 274 276 279 281 283 285 287 290 291 293 294 295
277 283 290 296 299 300 300 300 298 297 297 298 299 296 292 287 284 281 277 272 268 266 265 264 262 260 260 261 263 264 265 265 266 267 268 270 272 274 275 277 279 281 283 285 287 289 291 292 293
276 281 288 293 296 297 296 296 296 295 297 301 300 296 294 288 285 283 279 275 270 267 265 264 263 262 261 261 263 264 265 265 266 267 268 270 272 273 275 276 278 279 281 282 284 286 288 289 291
273 279 284 289 293 295 295 294 295 296 300 301 301 299 295 289 284 282 280 276 272 268 266 266 266 266 265 264 264 264 265 265 266 267 268 270 271 273 274 276 277 278 279 281 282 284 285 287 288
274 279 283 286 290 295 295 293 293 296 301 301 299 297 294 290 286 284 280 277 274 270 269 268 267 267 267 267 266 266 266 266 267 267 268 269 271 272 274 275 276 277 278 279 281 282 283 285 286
276 279 282 286 290 293 293 292 294 299 302 301 300 298 295 290 287 285 282 279 277 275 272 269 267 267 267 268 268 267 268 268 268 268 269 270 270 271 272 274 275 276 277 278 280 281 282 283 284
279 282 284 285 289 293 294 293 297 301 302 301 299 298 296 292 289 285 283 281 279 277 275 273 270 269 268 268 268 269 269 270 270 270 270 270 270 271 272 273 274 276 277 278 279 280 281 282 283
283 285 287 289 291 292 289 288 295 300 302 300 297 296 295 293 290 286 284 282 280 279 277 276 274 272 270 269 269 269 270 270 270 270 271 271 271 272 273 274 274 276 276 277 278 279 280 281 282
286 289 289 288 289 289 288 288 294 300 302 301 299 298 295 293 290 288 286 284 283 281 280 278 277 276 274 272 271 271 271 271 271 272 273 273 273 274 274 274 275 275 276 277 277 278 279 280 281
292 292 291 290 293 294 294 295 298 301 302 302 303 302 300 297 294 291 289 288 286 285 283 281 279 278 278 277 276 274 273 273 273 274 274 274 274 274 275 275 275 276 277 277 278 278 279 280 281
293 292 292 295 298 300 299 301 304 305 305 306 306 305 303 300 298 296 293 291 289 287 285 283 281 279 279 279 278 277 277 276 276 275 274 274 274 275 275 276 277 277 278 278 279 279 280 280 281
295 296 298 302 304 304 303 305 309 310 310 309 307 305 304 304 302 300 297 294 292 289 287 286 284 282 280 280 279 280 279 279 278 277 276 275 276 277 278 278 278 279 279 279 279 280 280 281 281
301 302 303 304 304 304 305 307 311 311 308 306 306 306 306 306 304 301 299 296 294 291 290 288 287 285 284 282 282 281 280 280 279 278 278 278 279 279 279 280 280 280 281 281 281 281 281 281 281
303 305 307 308 305 304 306 308 310 310 306 306 307 307 307 306 305 303 300 298 296 294 292 290 288 287 286 285 284 284 283 282 281 281 280 280 280 280 280 280 281 281 281 281 281 281 281 282 282
304 305 307 309 309 308 308 308 308 307 306 308 309 308 307 306 305 304 302 300 298 297 295 294 292 291 290 288 287 286 285 284 283 283 282 282 281 281 281 281 281 281 281 281 281 281 281 282 282
302 303 306 308 309 307 306 306 305 307 309 311 311 309 307 305 305 303 302 301 301 300 299 298 297 295 294 293 291 290 288 287 286 285 285 284 283 283 282 282 281 281 282 282 281 281 282 282 282
301 303 305 306 307 308 308 308 307 308 309 310 309 308 306 305 305 304 304 303 303 303 302 301 299 298 296 295 293 292 291 289 288 287 286 286 285 284 283 282 282 282 282 282 281 281 281 281 281
299 303 304 306 307 309 309 309 308 306 305 306 307 308 308 307 306 306 306 306 305 304 303 301 300 299 297 296 295 294 293 291 290 289 288 287 286 285 284 284 284 283 283 282 281 281 281 280 280
299 302 304 305 306 307 307 307 302 301 304 307 310 311 311 309 308 308 307 306 305 304 302 301 300 299 298 297 296 295 294 292 291 290 289 288 287 286 285 284 284 283 283 282 282 282 281 280 280
299 302 304 305 306 307 308 310 306 306 308 310 313 313 311 309 308 307 306 305 305 304 303 302 301 300 299 298 297 296 294 293 292 291 290 289 288 287 286 285 284 284 283 282 282 281 281 281 280
297 300 301 302 303 304 306 313 309 308 308 310 312 311 310 309 308 308 307 306 305 304 303 303 302 301 300 299 297 296 295 293 292 291 290 289 288 287 286 285 284 284 283 282 281 281 280 280 280
294 297 298 298 299 302 305 313 310 307 308 310 310 310 309 309 309 307 306 306 305 304 303 303 302 301 300 299 298 297 295 294 293 292 291 290 289 288 287 286 285 284 283 281 281 280 280 280 280
Height
5870 5870 5870 5871 5872 5871 5870 5871 5870 5869 5869 5869 5869 5869 5869 5870 5870 5872 5869 5867 5867 5867 5866 5866 5866 5866 5866 5865 5865 5865 5865 5865 5864 5864 5864 5864 5863 5863 5863 5863 5862 5862 5862 5861 5861 5860 5860 5860 5860
5871 5871 5871 5872 5871 5871 5871 5870 5869 5869 5869 5868 5868 5868 5868 5868 5868 5868 5866 5865 5865 5865 5865 5864 5864 5864 5863 5863 5863 5863 5862 5862 5862 5862 5861 5861 5861 5861 5860 5860 5860 5859 5859 5858 5858 5857 5857 5857 5856
5871 5871 5872 5871 5871 5871 5871 5870 5869 5868 5868 5868 5867 5867 5867 5866 5866 5866 5865 5864 5863 5863 5863 5862 5862 5862 5861 5861 5861 5860 5860 5860 5860 5859 5859 5859 5858 5858 5858 5857 5857 5856 5855 5855 5854 5854 5853 5853 5852
5872 5872 5872 5872 5871 5871 5870 5869 5868 5867 5867 5866 5866 5866 5864 5864 5864 5864 5863 5862 5861 5860 5860 5860 5860 5859 5859 5859 5858 5858 5858 5858 5857 5857 5856 5856 5856 5855 5855 5854 5854 5853 5852 5851 5851 5850 5850 5849 5848
5872 5872 5872 5871 5870 5870 5869 5868 5867 5866 5865 5865 5864 5864 5862 5862 5861 5861 5860 5859 5858 5858 5858 5857 5857 5857 5857 5856 5856 5856 5856 5855 5855 5854 5854 5853 5853 5852 5852 5851 5850 5850 5849 5848 5847 5847 5846 5845 5844
5872 5872 5871 5870 5869 5869 5868 5867 5866 5864 5863 5863 5862 5861 5860 5859 5858 5859 5858 5857 5856 5855 5855 5855 5855 5854 5854 5854 5854 5853 5853 5852 5852 5851 5851 5850 5850 5849 5848 5848 5847 5846 5845 5844 5843 5843 5842 5841 5840
5872 5871 5870 5869 5868 5868 5867 5865 5864 5862 5861 5860 5859 5859 5858 5856 5856 5856 5855 5855 5853 5853 5852 5852 5852 5852 5851 5851 5851 5850 5850 5850 5849 5848 5848 5847 5846 5846 5845 5844 5843 5842 5841 5840 5839 5838 5837 5836 5835
5870 5870 5869 5868 5867 5866 5865 5863 5861 5860 5859 5858 5856 5856 5855 5854 5852 5852 5852 5852 5851 5850 5849 5849 5849 5849 5848 5848 5848 5847 5847 5846 5846 5845 5845 5844 5843 5842 5841 5840 5839 5838 5837 5836 5835 5834 5833 5832 5831
5869 5869 5867 5866 5865 5864 5862 5861 5859 5858 5856 5855 5853 5853 5852 5850 5849 5849 5848 5848 5848 5847 5846 5845 5845 5845 5845 5845 5844 5844 5843 5843 5842 5842 5841 5840 5839 5838 5837 5836 5835 5834 5833 5832 5830 5829 5828 5827 5825
5867 5866 5865 5864 5863 5861 5859 5858 5857 5855 5853 5851 5851 5850 5848 5847 5845 5845 5845 5845 5844 5843 5843 5842 5841 5841 5841 5841 5840 5840 5839 5839 5838 5837 5837 5836 5835 5834 5833 5832 5831 5829 5828 5827 5825 5824 5823 5821 5820
5864 5863 5862 5861 5860 5858 5857 5855 5853 5851 5850 5849 5848 5846 5845 5843 5842 5841 5840 5840 5840 5840 5839 5838 5837 5837 5837 5836 5836 5835 5835 5834 5833 5833 5832 5831 5830 5829 5828 5827 5825 5824 5823 5821 5820 5818 5817 5815 5814
5861 5860 5859 5858 5857 5855 5854 5852 5850 5848 5847 5846 5844 5843 5841 5840 5838 5837 5836 5836 5836 5835 5834 5833 5833 5832 5832 5832 5831 5830 5830 5829 5828 5827 5827 5825 5824 5823 5822 5821 5820 5818 5817 5815 5814 5812 5810 5808 5807
5858 5857 5856 5855 5853 5852 5850 5848 5846 5845 5844 5842 5840 5839 5837 5836 5834 5833 5832 5831 5830 5830 5829 5829 5828 5827 5826 5826 5825 5825 5824 5823 5822 5822 5820 5819 5818 5817 5815 5814 5813 5811 5809 5808 5806 5805 5803 5801 5799
5855 5854 5852 5851 5850 5848 5847 5844 5842 5841 5840 5838 5836 5835 5833 5832 5830 5828 5827 5826 5825 5824 5824 5823 5822 5821 5821 5820 5819 5818 5817 5816 5816 5815 5813 5812 5811 5809 5808 5806 5805 5803 5802 5800 5798 5796 5794 5792 5790
5851 5850 5848 5847 5846 5844 5843 5840 5838 5837 5836 5835 5833 5831 5829 5827 5825 5823 5822 5821 5819 5818 5818 5817 5816 5816 5815 5813 5812 5811 5810 5809 5808 5807 5806 5804 5803 5801 5800 5798 5796 5794 5793 5791 5789 5787 5785 5783 5781
5848 5847 5845 5843 5842 5841 5841 5838 5834 5833 5832 5831 5829 5826 5824 5822 5820 5818 5817 5815 5814 5812 5811 5810 5810 5809 5808 5807 5805 5804 5803 5802 5800 5799 5797 5796 5794 5792 5791 5789 5787 5785 5783 5781 5779 5777 5775 5773 5770
5844 5843 5841 5840 5838 5837 5835 5834 5831 5829 5827 5825 5824 5822 5820 5818 5815 5813 5811 5810 5808 5807 5805 5804 5802 5801 5800 5799 5798 5797 5796 5794 5792 5790 5789 5787 5785 5783 5781 5780 5777 5775 5773 5771 5768 5766 5763 5761 5759
5840 5839 5837 5835 5834 5832 5830 5829 5828 5825 5823 5821 5819 5817 5815 5813 5810 5808 5806 5804 5803 5801 5799 5797 5796 5794 5792 5791 5790 5789 5787 5786 5784 5782 5780 5777 5775 5773 5771 5769 5766 5764 5762 5759 5757 5754 5751 5749 5745
5836 5835 5833 5831 5829 5827 5825 5824 5823 5821 5818 5816 5814 5811 5810 5808 5805 5803 5801 5799 5797 5795 5793 5791 5789 5787 5785 5783 5781 5780 5778 5777 5775 5773 5770 5767 5764 5761 5759 5757 5755 5752 5749 5747 5744 5741 5738 5735 5731
5832 5831 5829 5827 5824 5823 5821 5820 5819 5816 5814 5812 5809 5807 5805 5802 5800 5798 5796 5793 5791 5789 5787 5784 5782 5780 5777 5775 5773 5771 5769 5767 5765 5762 5759 5756 5753 5750 5747 5745 5742 5739 5736 5733 5730 5727 5723 5720 5716
5828 5827 5825 5824 5821 5818 5817 5816 5815 5812 5810 5808 5805 5802 5800 5797 5795 5792 5790 5787 5785 5782 5780 5777 5775 5772 5769 5767 5764 5762 5759 5757 5754 5751 5748 5745 5742 5738 5735 5732 5729 5725 5722 5719 5715 5711 5708 5705 5701
5825 5823 5821 5820 5818 5815 5813 5811 5810 5808 5806 5803 5801 5797 5794 5792 5789 5786 5783 5781 5778 5775 5772 5770 5767 5764 5761 5758 5755 5752 5749 5746 5743 5739 5736 5733 5729 5726 5722 5718 5715 5711 5707 5704 5700 5695 5692 5688 5685
5821 5819 5818 5816 5813 5812 5809 5807 5805 5803 5801 5798 5796 5792 5789 5786 5783 5780 5777 5774 5771 5768 5765 5762 5758 5755 5752 5749 5745 5742 5739 5735 5732 5728 5724 5720 5716 5712 5708 5704 5700 5696 5692 5688 5684 5679 5675 5671 5667
5817 5815 5813 5812 5810 5808 5805 5803 5800 5797 5795 5792 5790 5787 5783 5780 5777 5773 5770 5767 5763 5760 5756 5753 5750 5746 5742 5739 5735 5731 5728 5724 5720 5716 5711 5707 5703 5698 5694 5689 5684 5680 5676 5672 5667 5662 5658 5654 5650
5813 5811 5809 5807 5805 5803 5800 5798 5795 5791 5789 5786 5784 5781 5778 5774 5771 5767 5763 5759 5756 5752 5748 5744 5741 5737 5733 5728 5724 5720 5716 5711 5707 5702 5698 5693 5688 5684 5678 5673 5668 5664 5659 5654 5649 5644 5640 5636 5632
5808 5807 5805 5802 5800 5799 5796 5793 5790 5786 5783 5780 5778 5775 5771 5768 5764 5760 5756 5752 5748 5744 5740 5736 5731 5727 5722 5718 5713 5708 5703 5698 5693 5688 5683 5678 5673 5668 5662 5656 5651 5646 5641 5636 5630 5626 5622 5617 5613
5803 5801 5799 5796 5793 5792 5791 5789 5785 5780 5777 5774 5771 5768 5764 5760 5756 5752 5748 5744 5739 5735 5730 5725 5721 5716 5711 5706 5700 5695 5689 5684 5678 5673 5667 5661 5655 5650 5644 5638 5633 5628 5622 5617 5611 5607 5603 5598 5594
5798 5795 5793 5790 5787 5784 5784 5782 5778 5773 5770 5767 5763 5760 5756 5752 5748 5744 5739 5735 5730 5725 5720 5714 5709 5704 5698 5693 5687 5681 5674 5668 5662 5655 5649 5643 5637 5631 5625 5619 5613 5608 5603 5597 5591 5587 5583 5578 5574
5793 5790 5786 5784 5781 5778 5775 5778 5772 5767 5763 5759 5756 5752 5748 5744 5739 5735 5730 5724 5719 5714 5708 5702 5696 5690 5684 5678 5671 5665 5658 5650 5644 5637 5630 5623 5617 5610 5604 5598 5593 5587 5582 5576 5571 5567 5562 5557 5554
5787 5784 5781 5779 5775 5771 5768 5771 5765 5760 5755 5752 5748 5744 5739 5735 5730 5724 5719 5713 5707 5701 5695 5689 5682 5676 5669 5662 5654 5647 5639 5631 5624 5617 5609 5602 5596 5589 5582 5576 5571 5565 5560 5555 5549 5545 5541 5536 5533